GW4197 Weather Reports


Display with metric or nautical units.
time (UTC)temp
F
wind
direction
speed
MPH
gust
MPH
rain 1hr
in
rain 24hr
in
rain mn
in
humidity
%
barometer
mb
20260508142031 41 270 5.0 6.0 0.00 0.00 0.00 95 1002.3
20260508141539 41 271 4.0 6.0 0.00 0.00 0.00 95 1002.4
20260508141031 41 252 4.0 5.0 0.00 0.00 0.00 95 1002.4
20260508140530 41 267 4.0 5.0 0.00 0.00 0.00 96 1002.5
20260508140048 41 282 3.0 5.0 0.00 0.00 0.00 95 1002.4
20260508135530 41 299 3.0 5.0 0.00 0.00 0.00 95 1002.5
20260508135031 40 255 3.0 5.0 0.00 0.00 0.00 95 1002.5
20260508134545 41 244 2.0 6.0 0.00 0.00 0.00 95 1002.6
20260508134031 41 245 3.0 6.0 0.00 0.00 0.00 95 1002.5
20260508133535 41 238 3.0 6.0 0.00 0.00 0.00 95 1002.6
20260508133100 41 264 3.0 5.0 0.00 0.00 0.00 95 1002.5
20260508132531 41 262 4.0 5.0 0.00 0.00 0.00 96 1002.5
20260508132032 41 245 2.0 5.0 0.00 0.00 0.00 95 1002.5
20260508131539 41 247 3.0 5.0 0.00 0.00 0.00 95 1002.4
20260508131031 41 259 3.0 5.0 0.00 0.00 0.00 95 1002.4
20260508130531 41 249 1.0 5.0 0.00 0.00 0.00 96 1002.2
20260508130039 41 262 3.0 6.0 0.00 0.00 0.00 95 1002.1
20260508125531 41 257 1.0 7.0 0.00 0.00 0.00 95 1002.0
20260508125034 41 255 3.0 7.0 0.00 0.00 0.00 95 1001.9
20260508124539 41 258 4.0 6.0 0.00 0.00 0.00 95 1001.9
20260508124031 41 268 4.0 6.0 0.00 0.00 0.00 95 1001.8
20260508123531 41 269 4.0 6.0 0.00 0.00 0.00 95 1001.7
20260508123044 42 245 3.0 5.0 0.00 0.00 0.00 94 1001.7
20260508122531 42 256 3.0 4.0 0.00 0.00 0.00 94 1001.7
20260508122031 42 277 3.0 4.0 0.00 0.00 0.00 95 1001.8
20260508121543 42 319 0.0 4.0 0.00 0.00 0.00 95 1001.8
20260508121033 42 0 1.0 4.0 0.00 0.00 0.00 95 1001.9
20260508120535 42 0 0.0 0.0 0.00 0.00 0.00 94 1002.1
20260508120050 43 0 0.0 0.0 0.00 0.00 0.00 95 1002.1
20260508115533 43 0 0.0 0.0 0.00 0.00 0.00 94 1002.2
20260508115035 43 0 0.0 0.0 0.00 0.00 0.00 95 1002.0
20260508114546 43 0 0.0 0.0 0.00 0.00 0.00 94 1001.9
20260508114034 44 0 0.0 0.0 0.00 0.00 0.00 95 1001.8
20260508113532 43 0 0.0 0.0 0.00 0.00 0.00 96 1001.9
20260508113054 42 0 0.0 0.0 0.00 0.00 0.00 95 1002.0
20260508112532 42 0 0.0 0.0 0.00 0.00 0.00 95 1001.9
20260508112032 42 0 0.0 0.0 0.00 0.00 0.00 95 1002.0
20260508111549 43 0 0.0 0.0 0.00 0.00 0.00 95 1002.2
20260508111032 43 0 0.0 0.0 0.00 0.00 0.00 95 1002.2
20260508110531 44 0 0.0 0.0 0.00 0.00 0.00 96 1002.2
20260508110044 44 0 0.0 0.0 0.00 0.00 0.00 96 1002.2
20260508105534 45 0 0.0 0.0 0.00 0.00 0.00 96 1002.1
20260508105035 46 0 0.0 1.0 0.00 0.00 0.00 98 1002.2
20260508104545 44 0 0.0 1.0 0.00 0.00 0.00 98 1002.4
20260508104032 43 0 0.0 1.0 0.00 0.00 0.00 98 1002.4
20260508103533 41 0 0.0 0.0 0.00 0.00 0.00 97 1002.4
20260508103051 41 0 0.0 0.0 0.00 0.00 0.00 97 1002.4
20260508102533 41 0 0.0 0.0 0.00 0.00 0.00 97 1002.3
20260508102032 42 0 0.0 0.0 0.00 0.00 0.00 98 1002.2
20260508101548 41 0 0.0 0.0 0.00 0.00 0.00 98 1002.1
20260508101033 41 0 0.0 0.0 0.00 0.00 0.00 98 1002.4
20260508100532 41 0 0.0 0.0 0.00 0.00 0.00 98 1002.3
20260508100048 40 0 0.0 0.0 0.00 0.00 0.00 98 1002.2
20260508095536 40 0 0.0 0.0 0.00 0.00 0.00 97 1002.3
20260508095034 40 0 0.0 0.0 0.00 0.00 0.00 97 1002.2
20260508094545 39 0 0.0 0.0 0.00 0.00 0.00 97 1002.2
20260508094033 39 0 0.0 0.0 0.00 0.00 0.00 97 1002.0
20260508093533 39 0 0.0 0.0 0.00 0.00 0.00 97 1001.9
20260508093049 39 0 0.0 0.0 0.00 0.00 0.00 97 1002.1
20260508092532 39 0 0.0 0.0 0.00 0.00 0.00 97 1001.8
20260508092032 39 0 0.0 0.0 0.00 0.00 0.00 97 1001.8
20260508091608 40 0 0.0 0.0 0.00 0.00 0.00 97 1001.9
20260508091032 40 0 0.0 0.0 0.00 0.00 0.00 97 1001.8
20260508090533 40 0 0.0 0.0 0.00 0.00 0.00 97 1001.9
20260508090058 40 0 0.0 0.0 0.00 0.00 0.00 97 1002.2
20260508085533 40 0 0.0 0.0 0.00 0.00 0.00 97 1002.1
20260508085036 40 0 0.0 0.0 0.00 0.00 0.00 97 1002.0
20260508084542 41 0 0.0 0.0 0.00 0.00 0.00 97 1002.0
20260508084036 41 0 0.0 0.0 0.00 0.00 0.00 97 1002.0
20260508083532 41 0 0.0 0.0 0.00 0.00 0.00 97 1001.6
20260508083044 41 0 0.0 0.0 0.00 0.00 0.00 97 1001.6
20260508082532 41 0 0.0 0.0 0.00 0.00 0.00 97 1001.6
20260508082032 41 0 0.0 0.0 0.00 0.00 0.00 97 1001.7
20260508081547 41 0 0.0 0.0 0.00 0.00 0.00 98 1001.7
20260508081031 41 0 0.0 0.0 0.00 0.00 0.00 98 1001.6
20260508080532 41 0 0.0 0.0 0.00 0.00 0.00 98 1001.2
20260508080044 41 0 0.0 0.0 0.00 0.00 0.00 97 1001.3
20260508075532 41 0 0.0 0.0 0.00 0.00 0.00 97 1001.3
20260508075035 41 0 0.0 0.0 0.00 0.00 0.00 97 1001.5
20260508074541 41 0 0.0 0.0 0.00 0.00 0.00 98 1001.5
20260508074034 41 0 0.0 0.0 0.00 0.00 0.00 97 1001.5
20260508073533 41 0 0.0 0.0 0.00 0.00 0.00 97 1001.4
20260508073049 41 0 0.0 0.0 0.00 0.00 0.00 97 1001.6
20260508072533 41 0 0.0 0.0 0.00 0.00 0.00 97 1001.6
20260508072033 41 0 0.0 0.0 0.00 0.00 0.00 97 1001.8
20260508071542 41 0 0.0 0.0 0.00 0.00 0.00 97 1001.7
20260508071032 40 0 0.0 0.0 0.00 0.00 0.00 97 1001.9
20260508070532 40 0 0.0 1.0 0.00 0.00 0.00 97 1001.8
20260508070058 40 0 0.0 1.0 0.00 0.00 0.00 97 1001.7
20260508065533 40 0 0.0 1.0 0.00 0.00 0.00 97 1001.8
20260508065033 41 0 0.0 0.0 0.00 0.00 0.00 97 1001.9
20260508064549 41 0 0.0 0.0 0.00 0.00 0.00 97 1002.0
20260508064034 40 0 0.0 0.0 0.00 0.00 0.00 97 1002.0
20260508063534 40 0 0.0 0.0 0.00 0.00 0.00 97 1001.8
20260508063115 41 0 0.0 0.0 0.00 0.00 0.00 97 1001.8
20260508062532 41 0 0.0 0.0 0.00 0.00 0.00 97 1001.7
20260508062034 42 0 0.0 0.0 0.00 0.00 0.00 97 1001.7
20260508061544 42 0 0.0 4.0 0.00 0.00 0.00 97 1001.7
20260508061032 41 0 0.0 5.0 0.00 0.00 0.00 97 1001.8
20260508060535 41 0 2.0 5.0 0.00 0.00 0.00 97 1001.8
20260508060045 40 0 0.0 0.0 0.00 0.00 0.00 97 1001.9
20260508055532 40 0 0.0 0.0 0.00 0.00 0.00 97 1001.7
20260508055033 40 0 0.0 0.0 0.00 0.00 0.00 97 1001.6
20260508054543 40 0 0.0 3.0 0.00 0.00 0.00 97 1001.5
20260508054033 41 0 0.0 3.0 0.00 0.00 0.00 97 1001.6
20260508053531 41 0 0.0 3.0 0.00 0.00 0.00 97 1001.7
20260508053051 41 0 0.0 0.0 0.00 0.00 0.00 97 1001.7
20260508052532 41 0 0.0 0.0 0.00 0.00 0.00 97 1001.7
20260508052034 42 0 0.0 2.0 0.00 0.00 0.00 97 1001.8
20260508051604 42 0 0.0 2.0 0.00 0.00 0.00 97 1001.7
20260508051032 42 0 0.0 2.0 0.00 0.00 0.00 97 1001.8
20260508050534 42 0 0.0 0.0 0.00 0.00 0.00 97 1001.7
20260508050050 43 0 0.0 0.0 0.00 0.00 0.00 97 1001.5
20260508045533 43 0 0.0 0.0 0.00 0.00 0.00 97 1001.6
20260508045034 43 0 0.0 0.0 0.00 0.00 0.00 97 1001.6
20260508044546 43 0 0.0 0.0 0.00 0.00 0.00 97 1001.7
20260508044031 43 0 0.0 0.0 0.00 0.00 0.00 97 1001.7
20260508043532 43 0 0.0 0.0 0.00 0.00 0.00 97 1001.6
20260508043044 43 0 0.0 0.0 0.00 0.00 0.00 97 1001.7
20260508042532 44 0 0.0 0.0 0.00 0.00 0.00 97 1001.7
20260508042031 44 0 0.0 0.0 0.00 0.00 0.00 97 1001.6
20260508041546 44 0 0.0 0.0 0.00 0.00 0.00 97 1001.8
20260508041035 44 0 0.0 0.0 0.00 0.00 0.00 97 1001.9
20260508040533 43 0 0.0 0.0 0.00 0.00 0.00 97 1001.9
20260508040045 43 0 0.0 0.0 0.00 0.00 0.00 97 1001.9
20260508035532 44 0 0.0 0.0 0.00 0.00 0.00 96 1001.8
20260508035032 45 0 0.0 0.0 0.00 0.00 0.00 97 1001.7
20260508034546 45 0 0.0 0.0 0.00 0.00 0.00 97 1001.7
20260508034034 45 0 0.0 0.0 0.00 0.00 0.00 97 1001.8
20260508033532 45 0 0.0 0.0 0.00 0.00 0.00 97 1001.8
20260508033048 45 0 0.0 0.0 0.00 0.00 0.00 97 1001.8
20260508032534 45 0 0.0 0.0 0.00 0.00 0.00 97 1001.8
20260508032032 45 0 0.0 0.0 0.00 0.00 0.00 97 1001.8
20260508031541 45 0 0.0 0.0 0.00 0.00 0.00 97 1001.8
20260508031032 45 0 0.0 0.0 0.00 0.00 0.00 97 1001.7
20260508030535 46 0 0.0 0.0 0.00 0.00 0.00 97 1001.8
20260508030047 46 0 0.0 0.0 0.00 0.00 0.00 97 1001.9
20260508025534 46 0 0.0 0.0 0.00 0.00 0.00 97 1001.9
20260508025031 46 0 0.0 0.0 0.00 0.00 0.00 97 1002.1
20260508024546 46 0 0.0 0.0 0.00 0.00 0.00 97 1002.0
20260508024033 46 0 0.0 0.0 0.00 0.00 0.00 97 1002.0
20260508023533 46 0 0.0 0.0 0.00 0.00 0.00 97 1002.1
20260508023046 46 0 0.0 0.0 0.00 0.00 0.00 97 1002.0
20260508022533 46 0 0.0 0.0 0.00 0.00 0.00 97 1002.1
20260508022032 46 0 0.0 0.0 0.00 0.00 0.00 97 1002.1
20260508021550 46 0 0.0 0.0 0.00 0.00 0.00 97 1002.3
20260508021034 46 0 0.0 0.0 0.00 0.00 0.00 97 1002.3
20260508020532 45 0 0.0 0.0 0.00 0.00 0.00 97 1002.3
20260508020040 45 0 0.0 0.0 0.00 0.00 0.00 97 1002.0
20260508015532 45 0 0.0 0.0 0.00 0.00 0.00 97 1002.1
20260508015032 45 0 0.0 0.0 0.00 0.00 0.00 97 1002.4
20260508014539 45 0 0.0 0.0 0.00 0.00 0.00 97 1002.4
20260508014032 45 0 0.0 0.0 0.00 0.00 0.00 97 1002.5
20260508013532 45 0 0.0 0.0 0.00 0.00 0.00 97 1002.7
20260508013046 46 0 0.0 0.0 0.00 0.00 0.00 97 1002.7
20260508012532 45 0 0.0 3.0 0.00 0.00 0.00 97 1002.6
20260508012032 45 0 1.0 3.0 0.00 0.00 0.00 97 1002.5
20260508011549 45 271 0.0 6.0 0.00 0.00 0.00 97 1002.4
20260508011033 45 0 0.0 6.0 0.00 0.00 0.00 96 1002.3
20260508010532 46 284 3.0 6.0 0.00 0.00 0.00 96 1002.3
20260508010057 46 286 4.0 6.0 0.00 0.00 0.00 96 1002.3
20260508005534 46 284 4.0 6.0 0.00 0.00 0.00 96 1002.3
20260508005032 46 276 2.0 5.0 0.00 0.00 0.00 96 1002.4
20260508004540 46 273 1.0 4.0 0.00 0.00 0.00 96 1002.4
20260508004032 47 0 1.0 4.0 0.00 0.00 0.00 96 1002.3
20260508003532 47 0 0.0 4.0 0.00 0.00 0.00 96 1002.2
20260508003046 47 266 0.0 5.0 0.00 0.00 0.00 96 1002.2
20260508002532 47 258 3.0 5.0 0.00 0.00 0.00 96 1002.3
20260508002032 47 250 1.0 5.0 0.00 0.00 0.00 96 1002.3
20260508001546 47 252 2.0 6.0 0.00 0.00 0.00 95 1002.4
20260508001032 47 238 4.0 6.0 0.00 0.00 0.00 95 1002.3
20260508000531 48 260 4.0 6.0 0.00 0.00 0.00 95 1002.3
20260508000047 49 220 4.0 8.0 0.00 0.00 0.00 95 1002.2
20260507235533 50 255 5.0 8.0 0.00 0.00 0.00 95 1002.2
20260507235033 50 246 5.0 9.0 0.00 0.00 0.00 96 1002.1
20260507234545 50 240 4.0 9.0 0.00 0.00 0.00 96 1002.2
20260507234032 50 240 5.0 9.0 0.00 0.00 0.00 95 1002.0
20260507233532 50 215 3.0 8.0 0.00 0.00 0.00 94 1001.9
20260507233042 51 264 1.0 7.0 0.00 0.00 0.00 93 1001.9
20260507232532 52 207 1.0 6.0 0.00 0.00 0.00 94 1001.9
20260507232031 53 267 1.0 5.0 0.00 0.00 0.00 94 1001.8
20260507231541 53 0 0.0 1.0 0.00 0.00 0.00 94 1001.6
20260507231031 53 0 0.0 0.0 0.00 0.00 0.00 94 1001.6
20260507230532 53 0 0.0 0.0 0.00 0.00 0.00 94 1001.6
20260507230105 53 0 0.0 5.0 0.00 0.00 0.00 94 1001.6
20260507225531 53 0 0.0 5.0 0.00 0.00 0.00 94 1001.6
20260507225032 53 252 3.0 8.0 0.00 0.00 0.00 94 1001.5
20260507224545 53 187 0.0 9.0 0.00 0.00 0.00 94 1001.5
20260507224033 52 205 2.0 12.0 0.00 0.00 0.00 93 1001.6
20260507223532 52 269 6.0 12.0 0.00 0.00 0.00 92 1001.3
20260507223131 54 170 6.0 12.0 0.00 0.00 0.00 94 1000.9
20260507222532 54 139 5.0 11.0 0.00 0.00 0.00 94 1000.8
20260507222033 53 131 5.0 10.0 0.00 0.00 0.00 94 1000.8
20260507221544 53 63 5.0 11.0 0.00 0.00 0.00 94 1000.9
20260507221032 53 125 7.0 11.0 0.00 0.00 0.00 94 1000.9
20260507220531 53 124 3.0 14.0 0.00 0.00 0.00 94 1000.9
20260507220046 53 150 5.0 17.0 0.00 0.00 0.00 94 1001.0
20260507215532 53 122 7.0 17.0 0.00 0.00 0.00 94 1000.9
20260507215032 53 132 7.0 18.0 0.00 0.00 0.00 94 1001.0
20260507214554 54 114 7.0 18.0 0.00 0.00 0.00 94 1000.9
20260507214031 54 121 8.0 18.0 0.00 0.00 0.00 94 1000.8
20260507213531 54 93 7.0 15.0 0.00 0.00 0.00 94 1000.9
20260507213046 54 165 8.0 17.0 0.00 0.00 0.00 94 1001.0
20260507212532 54 141 9.0 17.0 0.00 0.00 0.00 94 1001.0
20260507212031 54 124 9.0 17.0 0.00 0.00 0.00 94 1000.9
20260507211549 54 195 8.0 14.0 0.00 0.00 0.00 94 1000.9
20260507211031 54 122 6.0 16.0 0.00 0.00 0.00 94 1000.9
20260507210532 54 116 9.0 18.0 0.00 0.00 0.00 94 1001.1
20260507210050 54 60 8.0 18.0 0.00 0.00 0.00 94 1001.0
20260507205533 54 127 8.0 15.0 0.00 0.00 0.00 94 1001.1
20260507205031 54 118 7.0 15.0 0.00 0.00 0.00 94 1001.1
20260507204545 54 114 7.0 16.0 0.00 0.00 0.00 94 1001.0
20260507204031 54 169 6.0 16.0 0.00 0.00 0.00 94 1000.8
20260507203533 54 128 6.0 16.0 0.00 0.00 0.00 94 1000.9
20260507203046 54 136 6.0 16.0 0.00 0.00 0.00 94 1000.8
20260507202531 54 109 7.0 16.0 0.00 0.00 0.00 95 1000.9
20260507202031 54 96 8.0 15.0 0.00 0.00 0.00 95 1001.0
20260507201547 54 198 6.0 15.0 0.00 0.00 0.00 95 1001.0
20260507201034 54 109 8.0 15.0 0.00 0.00 0.00 95 1000.3
20260507200531 54 143 8.0 16.0 0.00 0.00 0.00 95 1000.3
20260507200054 54 127 7.0 16.0 0.00 0.00 0.00 95 1000.3
20260507195532 54 129 7.0 16.0 0.00 0.00 0.00 95 1000.5
20260507195034 54 150 8.0 15.0 0.00 0.00 0.00 95 1000.8
20260507194545 54 103 6.0 14.0 0.00 0.00 0.00 95 1000.5
20260507194030 54 118 7.0 14.0 0.00 0.00 0.00 95 1000.8
20260507193531 54 128 6.0 14.0 0.00 0.00 0.00 95 1001.1
20260507193051 54 122 7.0 14.0 0.00 0.00 0.00 94 1001.2
20260507192531 54 127 4.0 13.0 0.00 0.00 0.00 95 1001.4
20260507192031 54 125 7.0 14.0 0.00 0.00 0.00 95 1001.7
20260507191547 55 161 7.0 14.0 0.00 0.00 0.00 95 1002.0
20260507191031 55 167 8.0 18.0 0.00 0.00 0.00 95 1002.4
20260507190531 55 152 6.0 18.0 0.00 0.00 0.00 95 1002.6
20260507190051 55 148 8.0 18.0 0.00 0.00 0.00 95 1002.7
20260507185531 55 140 7.0 16.0 0.00 0.00 0.00 95 1002.8
20260507185033 55 131 5.0 14.0 0.00 0.00 0.00 95 1002.9
20260507184543 55 151 6.0 14.0 0.00 0.00 0.00 95 1003.0
20260507184030 55 127 8.0 14.0 0.00 0.00 0.00 95 1002.9
20260507183531 55 139 5.0 13.0 0.00 0.00 0.00 95 1002.8
20260507183042 55 129 6.0 15.0 0.00 0.00 0.00 95 1002.9
20260507182532 55 136 8.0 16.0 0.00 0.00 0.00 95 1003.3
20260507182032 55 172 6.0 16.0 0.00 0.00 0.00 94 1003.4
20260507181547 55 129 6.0 16.0 0.00 0.00 0.00 94 1003.3
20260507181032 55 216 8.0 14.0 0.00 0.00 0.00 94 1003.4
20260507180535 55 136 5.0 13.0 0.00 0.00 0.00 94 1003.3
20260507180048 55 126 6.0 13.0 0.00 0.00 0.00 94 1003.5
20260507175533 55 142 6.0 14.0 0.00 0.00 0.00 94 1003.6
20260507175031 55 182 5.0 14.0 0.00 0.00 0.00 94 1003.8
20260507174554 55 149 6.0 17.0 0.00 0.00 0.00 94 1003.9
20260507174032 55 126 8.0 17.0 0.00 0.00 0.00 93 1004.0
20260507173531 55 210 7.0 16.0 0.00 0.00 0.00 93 1004.1
20260507173044 55 162 7.0 16.0 0.00 0.00 0.00 93 1004.2
20260507172531 56 149 9.0 16.0 0.00 0.00 0.00 92 1004.1
20260507172031 56 146 6.0 18.0 0.00 0.00 0.00 92 1003.8
20260507171549 56 198 9.0 25.0 0.00 0.00 0.00 91 1003.5
20260507171031 57 150 9.0 25.0 0.00 0.00 0.00 91 1003.7
20260507170533 57 136 9.0 21.0 0.00 0.00 0.00 89 1003.6
20260507170050 58 132 11.0 21.0 0.00 0.00 0.00 88 1003.3
20260507165532 58 191 9.0 25.0 0.00 0.00 0.00 87 1003.4
20260507165031 59 131 10.0 25.0 0.00 0.00 0.00 86 1003.2
20260507164547 59 166 14.0 25.0 0.00 0.00 0.00 85 1003.1
20260507164032 59 134 12.0 31.0 0.00 0.00 0.00 84 1003.1
20260507163532 60 159 14.0 31.0 0.00 0.00 0.00 84 1003.0
20260507163045 60 161 12.0 29.0 0.00 0.00 0.00 84 1002.9
20260507162531 60 150 14.0 28.0 0.00 0.00 0.00 83 1003.1
20260507162033 60 125 12.0 27.0 0.00 0.00 0.00 83 1003.2
20260507161554 60 148 14.0 28.0 0.00 0.00 0.00 83 1003.3
20260507161033 60 169 13.0 28.0 0.00 0.00 0.00 83 1003.1
20260507160532 60 159 12.0 27.0 0.00 0.00 0.00 82 1003.4
20260507160042 61 81 14.0 27.0 0.00 0.00 0.00 82 1003.4
20260507155530 61 139 15.0 27.0 0.00 0.00 0.00 82 1003.5
20260507155031 61 159 13.0 26.0 0.00 0.00 0.00 81 1003.7
20260507154544 61 152 11.0 26.0 0.00 0.00 0.00 82 1003.9
20260507154031 61 124 11.0 30.0 0.00 0.00 0.00 82 1004.0
20260507153531 61 122 13.0 30.0 0.00 0.00 0.00 81 1003.9
20260507153107 61 172 15.0 28.0 0.00 0.00 0.00 81 1004.0
20260507152531 61 131 11.0 23.0 0.00 0.00 0.00 81 1004.1
20260507152032 61 160 10.0 29.0 0.00 0.00 0.00 81 1004.1
20260507151551 61 129 14.0 29.0 0.00 0.00 0.00 80 1004.4
20260507151031 61 180 14.0 29.0 0.00 0.00 0.00 81 1004.6
20260507150531 61 162 14.0 29.0 0.00 0.00 0.00 80 1004.4
20260507150050 61 135 13.0 31.0 0.00 0.00 0.00 80 1004.7
20260507145532 61 116 16.0 31.0 0.00 0.00 0.00 80 1004.7
20260507145031 61 179 15.0 31.0 0.00 0.00 0.00 80 1004.9
20260507144541 61 133 15.0 29.0 0.00 0.00 0.00 79 1005.1
20260507144031 61 181 12.0 24.0 0.00 0.00 0.00 79 1005.3
20260507143531 61 121 12.0 24.0 0.00 0.00 0.00 80 1005.0
20260507143052 61 124 11.0 31.0 0.00 0.00 0.00 80 1005.2
20260507142534 61 145 13.0 31.0 0.00 0.00 0.00 80 1005.4